Temp
67 66 64 67 67 66 63 61 65 73 77 72 70 68 69 71 72 70 69 70 71 73 78 80 81 82 81 78 74 75 74 72 73 71 71 70 71 72 73 73 74 74 74 75
65 62 71 71 70 67 63 63 64 72 77 72 71 68 71 71 71 73 71 71 72 74 75 78 79 81 80 77 75 75 75 73 74 75 73 73 71 72 72 72 73 75 74 75
61 68 74 72 66 66 61 60 64 68 73 73 68 65 67 71 72 75 75 75 75 75 75 77 78 79 81 77 75 76 75 75 74 75 73 71 72 72 72 72 72 74 75 75
62 69 70 65 67 68 55 69 71 69 64 59 67 55 62 62 67 70 75 75 76 77 79 79 79 79 81 80 76 77 76 75 77 73 74 71 71 70 71 72 73 73 75 75
66 65 65 64 71 71 70 71 67 67 60 60 61 57 61 60 62 65 71 75 77 78 79 79 79 81 82 82 77 77 75 74 75 74 75 74 71 72 73 72 72 71 74 75
67 70 67 70 72 72 71 67 62 56 55 50 56 57 57 61 66 68 70 75 77 79 79 81 81 81 81 81 78 77 74 73 74 74 74 73 72 71 71 71 71 70 72 73
62 64 69 70 64 67 65 56 49 49 47 50 49 54 62 66 72 72 73 74 77 80 80 79 77 78 77 78 77 77 73 72 73 73 74 73 73 72 72 71 71 70 71 72
53 57 66 74 63 61 55 54 50 45 44 50 49 51 65 70 72 71 74 76 77 79 81 79 79 79 78 78 76 76 73 73 73 74 73 74 72 73 73 73 72 73 73 74
53 56 70 69 69 65 57 52 52 47 39 47 49 58 67 70 72 72 74 73 74 78 80 79 80 80 78 77 76 76 74 73 73 74 74 73 73 73 73 73 73 73 73 74
57 53 60 69 70 69 63 60 52 50 44 40 48 49 54 64 66 68 70 73 73 74 77 78 79 79 79 79 76 75 74 75 75 76 75 75 74 74 73 73 72 72 73 73
55 55 60 61 59 55 59 56 50 48 45 44 43 52 59 61 63 63 68 70 72 74 74 76 79 79 78 79 76 76 73 76 75 76 76 76 75 75 73 74 74 73 73 73
55 53 49 55 62 60 57 54 50 49 47 42 45 52 62 62 63 66 64 66 68 71 76 77 78 77 75 75 74 74 75 75 77 77 76 76 76 75 74 74 75 74 73 73
58 50 46 51 56 60 56 55 48 48 46 46 47 53 64 62 63 65 64 65 65 68 69 73 75 76 75 76 72 74 73 75 75 74 77 77 77 75 75 75 75 74 74 73
63 47 50 48 51 53 54 58 54 51 48 46 49 56 63 61 59 62 64 65 66 67 68 70 71 73 74 75 74 73 76 74 73 77 76 75 76 77 77 76 75 75 74 73
60 52 48 53 56 55 57 60 58 53 54 52 56 56 58 60 60 62 64 67 67 67 68 69 69 70 71 72 73 74 75 76 74 74 73 76 76 77 77 76 75 75 74 74
53 51 47 50 56 56 55 60 59 60 58 56 57 57 61 63 64 64 65 66 67 67 68 68 69 71 72 72 73 74 75 75 77 75 72 71 75 75 75 76 74 74 73 73
53 49 45 43 48 51 49 56 58 60 61 60 55 59 62 62 64 64 64 65 65 66 67 67 68 67 67 69 71 72 73 74 75 77 77 76 76 74 74 75 73 73 73 73
47 46 43 44 44 39 56 58 62 62 63 63 61 62 64 64 66 66 65 64 65 66 67 67 67 67 69 69 70 71 72 72 72 74 76 77 77 76 75 72 73 74 74 72
49 48 43 45 41 50 58 61 61 59 61 65 63 65 66 66 64 65 66 65 65 66 67 67 69 69 69 69 69 68 69 70 71 72 75 76 77 75 71 68 69 75 73 71
49 48 49 41 43 44 55 64 67 63 54 67 66 64 65 64 58 61 68 68 68 68 69 70 72 71 70 69 68 69 70 70 71 72 74 76 77 76 75 75 74 74 72 71
46 45 45 42 43 50 59 65 65 52 55 65 67 65 63 61 65 68 70 70 71 72 73 73 71 70 69 68 67 67 68 70 72 72 73 75 75 74 75 75 74 72 69 68
48 45 43 42 41 44 63 63 56 59 61 64 65 65 65 65 67 68 68 69 70 70 71 73 70 68 68 68 67 67 67 68 70 71 71 71 73 73 72 70 69 68 68 66
48 52 48 50 49 57 59 59 61 61 61 62 62 65 65 66 66 68 66 66 67 67 67 68 68 67 66 67 67 67 68 67 69 70 70 70 70 71 71 70 67 66 66 65
51 51 50 53 53 57 61 62 63 64 63 65 66 65 65 64 67 67 67 66 65 65 65 65 63 63 64 65 66 66 67 68 68 68 69 70 69 68 68 68 67 65 65 64
54 52 50 50 55 55 59 60 64 66 67 66 66 66 67 66 65 64 64 63 62 62 63 62 60 59 60 61 62 65 67 67 67 68 68 69 69 67 66 67 66 66 66 64
55 53 48 52 63 56 58 62 64 63 64 65 64 64 66 64 63 62 61 60 60 58 58 57 58 58 58 58 59 61 64 67 66 67 66 67 68 66 65 64 61 55 56 57
MSLP
1006.16 1006.86 1006.83 1006.76 1006.66 1006.79 1007.04 1007.14 1006.72 1005.34 1004.89 1005.71 1005.01 1005.30 1005.68 1006.29 1007.05 1007.54 1008.35 1008.67 1008.89 1009.13 1009.05 1009.68 1010.17 1010.61 1011.29 1011.91 1012.45 1012.82 1013.36 1013.90 1014.53 1015.18 1015.63 1016.02 1016.12 1016.16 1016.24 1016.26 1016.51 1016.69 1016.71 1016.86
1006.46 1006.44 1005.72 1006.02 1006.15 1006.59 1006.87 1006.73 1006.06 1005.02 1004.77 1005.57 1005.01 1005.23 1005.38 1005.91 1005.56 1006.02 1007.09 1007.63 1008.03 1008.36 1008.90 1009.19 1009.54 1010.17 1010.55 1011.10 1011.71 1012.32 1012.69 1013.31 1013.80 1014.27 1014.84 1015.31 1015.68 1015.84 1015.90 1016.16 1016.35 1016.43 1016.52 1016.77
1006.24 1005.71 1005.30 1005.52 1005.66 1006.08 1006.26 1006.38 1005.66 1005.29 1005.13 1005.13 1005.45 1005.27 1004.94 1004.86 1005.11 1005.72 1006.10 1006.14 1006.96 1007.12 1007.64 1008.23 1008.89 1009.32 1009.89 1010.45 1010.95 1011.47 1011.88 1012.46 1013.19 1013.82 1014.55 1015.24 1015.57 1015.80 1016.08 1016.15 1016.26 1016.23 1016.22 1016.53
1006.00 1005.29 1005.08 1005.15 1005.40 1005.60 1005.72 1005.16 1005.44 1005.75 1005.94 1006.04 1005.98 1006.27 1005.44 1005.00 1004.95 1004.70 1004.87 1005.43 1005.91 1006.48 1007.00 1007.42 1007.84 1008.61 1009.11 1009.34 1010.22 1010.88 1011.41 1011.85 1012.53 1013.27 1014.10 1014.58 1014.88 1015.42 1015.53 1015.62 1015.89 1015.94 1015.97 1016.37
1005.80 1005.25 1004.96 1004.93 1004.64 1004.97 1005.02 1004.95 1005.71 1006.19 1006.88 1007.06 1006.72 1007.22 1005.44 1005.06 1004.68 1004.26 1004.27 1004.20 1004.76 1005.23 1005.87 1006.36 1006.87 1007.24 1007.99 1008.76 1009.49 1010.12 1010.80 1011.50 1011.92 1012.60 1013.30 1014.01 1014.57 1014.83 1015.17 1015.51 1015.69 1016.11 1016.15 1016.28
1005.68 1004.99 1004.72 1004.24 1003.90 1004.35 1004.93 1005.54 1006.68 1007.70 1008.25 1008.49 1007.31 1007.34 1005.88 1005.09 1004.45 1003.62 1003.20 1003.29 1003.64 1004.28 1004.96 1005.46 1005.94 1006.72 1007.22 1008.07 1009.01 1009.77 1010.48 1010.79 1011.42 1012.01 1012.67 1013.32 1013.92 1014.52 1015.04 1015.39 1015.66 1015.88 1016.13 1016.40
1005.97 1005.26 1004.70 1004.38 1004.33 1004.58 1005.27 1006.71 1008.09 1009.22 1009.90 1009.39 1008.12 1007.86 1005.39 1004.36 1003.60 1003.33 1002.52 1002.63 1002.77 1003.39 1004.20 1004.74 1005.35 1006.05 1006.93 1007.51 1008.38 1009.17 1009.92 1010.61 1010.96 1011.54 1012.12 1012.66 1013.26 1014.00 1014.46 1014.71 1015.21 1015.75 1015.94 1016.07
1007.20 1006.10 1005.21 1004.70 1004.71 1005.05 1005.99 1007.19 1008.28 1009.58 1010.87 1010.01 1009.00 1007.69 1004.62 1003.91 1003.41 1002.80 1002.03 1001.90 1002.60 1003.10 1003.60 1004.22 1004.52 1005.21 1006.04 1006.93 1007.71 1008.59 1009.33 1009.88 1010.60 1011.03 1011.43 1011.99 1012.67 1013.34 1013.87 1014.25 1014.61 1015.04 1015.24 1015.39
1007.47 1006.76 1005.72 1005.29 1005.05 1005.36 1006.11 1007.30 1008.48 1009.97 1011.21 1010.75 1009.48 1007.53 1005.18 1003.78 1003.56 1003.27 1002.67 1002.58 1002.69 1002.84 1002.96 1003.29 1003.89 1004.45 1005.34 1006.21 1006.89 1007.75 1008.67 1009.24 1009.81 1010.20 1010.85 1011.40 1011.99 1012.66 1013.06 1013.56 1014.02 1014.34 1014.71 1015.09
1007.88 1007.70 1006.92 1006.18 1005.68 1005.90 1006.33 1007.60 1008.85 1010.02 1011.42 1011.52 1010.19 1008.86 1007.20 1005.55 1004.58 1004.15 1003.63 1003.24 1003.37 1003.46 1003.60 1003.61 1003.75 1004.23 1004.56 1005.41 1006.26 1007.10 1008.02 1008.49 1008.90 1009.63 1010.22 1010.68 1011.19 1011.82 1012.41 1013.05 1013.41 1013.75 1014.07 1014.55
1007.94 1008.34 1008.10 1007.45 1007.48 1007.65 1007.62 1008.34 1009.79 1010.95 1011.44 1011.62 1010.86 1009.36 1007.36 1006.84 1006.02 1005.35 1004.76 1003.95 1003.52 1003.31 1003.35 1003.35 1003.72 1004.38 1005.03 1005.50 1006.14 1007.06 1007.69 1008.28 1008.99 1009.43 1009.84 1010.37 1010.79 1011.38 1012.00 1012.65 1012.92 1013.06 1013.45 1014.02
1008.77 1009.46 1009.59 1009.11 1008.35 1008.42 1008.32 1008.93 1009.75 1010.93 1011.86 1011.71 1010.78 1008.59 1007.45 1006.97 1006.89 1006.45 1006.20 1005.02 1004.43 1003.87 1003.19 1003.13 1003.42 1004.01 1004.74 1005.47 1006.31 1007.06 1007.43 1007.76 1008.19 1008.82 1009.29 1009.72 1010.25 1010.90 1011.56 1011.99 1012.44 1012.85 1013.14 1013.51
1009.01 1010.20 1010.59 1010.01 1009.70 1008.88 1009.06 1009.25 1009.82 1010.47 1010.94 1011.14 1010.85 1008.41 1007.33 1007.03 1007.30 1007.12 1006.66 1006.08 1005.30 1004.50 1003.90 1003.29 1003.57 1003.95 1004.38 1004.74 1005.05 1005.44 1006.25 1007.15 1008.52 1009.04 1009.55 1009.81 1010.05 1010.33 1010.77 1011.35 1011.80 1012.38 1012.87 1012.99
1009.11 1011.08 1011.45 1011.19 1010.67 1010.17 1009.80 1009.29 1009.47 1009.99 1010.57 1010.72 1009.90 1008.44 1007.65 1007.79 1007.64 1007.46 1007.04 1006.70 1006.09 1005.57 1005.23 1004.72 1004.51 1004.67 1004.76 1004.94 1005.05 1005.00 1005.76 1006.81 1007.34 1007.72 1008.05 1008.88 1009.39 1009.64 1010.10 1010.43 1011.05 1011.67 1012.19 1012.66
1010.12 1011.46 1011.65 1011.20 1010.59 1010.32 1009.66 1009.19 1009.09 1009.43 1009.28 1009.52 1008.66 1008.64 1008.16 1008.11 1008.25 1008.01 1007.54 1007.08 1006.69 1006.50 1006.20 1005.88 1005.61 1005.42 1005.48 1005.82 1006.15 1006.08 1006.60 1006.85 1006.67 1006.76 1007.51 1007.36 1008.02 1009.05 1009.68 1010.21 1010.61 1010.92 1011.21 1011.47
1011.04 1011.80 1012.10 1011.61 1010.60 1010.34 1009.74 1008.81 1008.44 1008.36 1008.29 1008.35 1008.20 1008.12 1007.86 1007.95 1008.19 1008.04 1007.76 1007.68 1007.48 1007.37 1007.03 1006.40 1006.22 1006.38 1006.38 1006.56 1007.15 1007.66 1007.59 1006.88 1006.21 1006.09 1005.77 1005.71 1006.60 1007.67 1008.68 1008.94 1009.43 1010.01 1010.58 1011.20
1011.78 1012.30 1013.10 1012.42 1011.24 1010.36 1009.63 1007.86 1007.29 1007.24 1007.40 1007.64 1007.83 1007.54 1007.87 1008.01 1008.04 1007.90 1007.71 1007.75 1007.71 1007.57 1007.48 1007.21 1006.91 1007.05 1007.15 1007.06 1006.91 1008.62 1007.35 1006.92 1006.55 1006.54 1006.20 1006.28 1006.53 1006.82 1007.09 1006.97 1007.98 1008.79 1009.26 1010.26
1011.92 1012.74 1012.99 1012.98 1011.77 1010.78 1008.41 1007.34 1007.00 1007.14 1007.00 1007.09 1007.18 1007.27 1007.53 1007.70 1007.83 1007.67 1007.53 1007.64 1007.56 1007.90 1007.38 1007.32 1007.07 1006.77 1007.06 1007.57 1007.54 1006.74 1006.04 1006.40 1006.32 1005.70 1005.35 1005.59 1005.77 1006.10 1005.93 1005.54 1005.85 1006.35 1007.61 1008.05
1011.85 1012.37 1013.16 1013.07 1012.21 1010.55 1008.06 1007.28 1006.91 1006.98 1006.97 1006.77 1006.96 1007.14 1007.37 1007.65 1007.86 1007.58 1007.30 1007.48 1007.40 1007.13 1007.09 1007.23 1007.02 1006.78 1006.28 1005.82 1005.58 1005.43 1005.03 1004.63 1004.57 1004.73 1004.80 1004.69 1004.79 1005.09 1005.33 1005.30 1005.60 1005.28 1005.97 1006.81
1012.32 1012.39 1012.76 1013.37 1012.37 1010.67 1008.16 1007.19 1006.90 1007.24 1007.11 1006.19 1006.55 1006.90 1007.26 1007.61 1007.86 1007.36 1006.91 1007.06 1007.07 1007.04 1006.95 1006.76 1006.57 1006.33 1006.23 1005.96 1005.52 1004.97 1004.83 1004.75 1004.75 1004.51 1004.09 1004.29 1004.56 1004.70 1005.00 1004.80 1004.72 1004.83 1005.19 1005.89
1012.63 1013.11 1013.13 1012.92 1011.85 1009.91 1008.14 1007.29 1007.10 1007.68 1007.42 1006.45 1006.58 1006.94 1007.33 1007.63 1006.85 1006.49 1006.28 1006.28 1006.28 1006.38 1006.31 1006.11 1005.93 1005.94 1005.97 1005.90 1005.76 1005.54 1005.49 1005.48 1005.10 1004.33 1003.77 1003.67 1003.64 1003.86 1004.03 1004.65 1005.02 1005.47 1006.41 1004.31
1012.42 1012.63 1012.81 1012.74 1011.51 1009.80 1008.09 1007.61 1007.70 1007.60 1007.08 1006.64 1006.60 1006.79 1007.11 1007.14 1006.85 1006.73 1006.66 1006.50 1006.49 1006.58 1006.46 1006.47 1006.62 1006.66 1006.51 1006.56 1006.43 1006.04 1005.74 1005.62 1005.13 1004.76 1004.06 1003.76 1003.70 1003.39 1003.62 1004.20 1005.08 1005.28 1005.71 1006.15
1012.18 1011.52 1011.69 1011.62 1010.28 1009.08 1008.35 1007.86 1007.67 1007.58 1007.47 1007.17 1007.11 1007.00 1006.94 1006.80 1006.62 1006.54 1006.58 1006.69 1006.72 1006.80 1006.97 1007.06 1007.19 1007.24 1007.11 1006.71 1006.45 1006.04 1005.63 1005.38 1005.29 1005.17 1004.67 1004.28 1003.91 1004.00 1003.98 1004.30 1004.87 1004.93 1005.08 1006.13
1011.59 1011.41 1011.49 1011.14 1009.84 1009.09 1008.52 1007.96 1007.69 1007.61 1007.38 1007.13 1006.93 1006.89 1006.91 1007.00 1006.73 1006.48 1006.43 1006.55 1006.76 1006.83 1006.98 1007.10 1007.33 1007.39 1006.94 1006.51 1006.21 1005.81 1005.51 1005.27 1005.17 1005.11 1004.76 1004.61 1004.39 1004.15 1004.14 1004.18 1004.92 1005.04 1004.96 1004.73
1011.69 1011.34 1011.25 1010.73 1009.30 1009.06 1008.48 1007.94 1007.75 1007.50 1007.28 1007.22 1007.11 1007.01 1006.86 1006.84 1006.77 1006.77 1006.74 1006.77 1006.92 1007.02 1007.10 1007.20 1007.28 1007.19 1006.90 1006.53 1005.93 1005.17 1004.83 1004.83 1004.90 1004.76 1004.43 1004.05 1004.10 1004.02 1004.19 1004.48 1004.62 1005.01 1004.55 1004.61
1011.01 1010.60 1010.71 1009.90 1008.67 1009.00 1008.44 1007.87 1007.46 1007.51 1007.16 1006.95 1006.99 1006.86 1006.63 1006.81 1006.82 1006.82 1006.89 1006.90 1006.97 1007.13 1007.27 1007.32 1007.30 1007.16 1006.67 1006.11 1005.61 1004.85 1004.53 1004.35 1004.31 1004.36 1004.21 1003.83 1003.72 1003.83 1003.95 1004.28 1004.59 1004.36 1004.40 1004.74
Wind_Speed
2 4 7 9 7 3 1 2 7 9 6 3 8 6 9 12 11 12 13 14 14 17 17 15 14 12 9 8 10 12 11 8 8 4 4 2 3 3 2 3 5 5 5 5
7 3 7 3 3 4 3 4 8 10 6 4 2 12 4 12 16 18 18 17 17 14 11 14 13 12 13 12 12 12 13 11 9 7 3 3 3 2 1 2 4 4 5 5
6 6 1 3 1 2 4 5 5 8 2 4 3 9 4 3 7 12 18 20 18 20 18 15 14 15 13 13 15 15 15 14 11 8 6 3 3 3 2 3 3 4 5 5
4 4 3 2 4 6 4 7 9 2 2 5 3 8 8 2 8 9 18 19 19 19 16 14 14 15 15 16 11 13 12 14 12 12 10 6 5 4 4 4 3 4 5 5
7 3 4 4 7 8 12 2 1 3 2 4 1 2 10 4 6 10 12 19 20 20 19 18 17 18 14 14 13 13 12 11 11 14 12 9 5 3 2 2 5 4 3 4
6 2 3 6 3 7 1 5 6 6 4 2 5 5 8 4 6 7 5 15 19 18 18 16 14 12 14 11 11 11 12 13 12 13 12 13 11 7 4 3 4 3 2 3
5 3 5 1 4 3 7 7 3 4 5 7 3 5 12 5 9 8 12 13 17 18 16 14 14 14 12 14 13 12 13 12 12 13 13 12 11 10 9 6 5 5 4 3
3 7 5 7 1 4 1 7 8 7 4 5 4 6 6 4 9 8 5 8 12 17 14 15 15 16 15 16 15 15 15 13 12 13 13 11 9 7 6 7 5 6 6 6
3 4 6 1 3 3 2 1 3 8 4 4 5 8 10 6 8 10 6 4 10 14 15 17 15 16 15 16 18 17 15 14 14 15 11 11 9 9 9 9 8 6 5 5
4 1 2 7 4 5 6 2 3 5 4 1 5 5 7 15 21 12 9 3 2 5 7 7 12 14 15 14 14 15 15 17 16 15 12 11 12 11 9 8 10 9 8 8
4 3 7 2 3 2 6 5 6 6 3 6 2 7 4 7 10 10 7 5 1 6 8 7 8 6 6 8 12 12 12 13 12 13 12 11 11 11 10 10 10 11 9 10
3 4 2 6 4 2 2 2 4 6 2 1 3 8 1 2 7 7 7 8 7 5 4 10 9 9 10 10 9 10 10 11 13 12 12 13 11 10 11 11 11 9 10 10
3 3 4 11 8 6 5 3 4 4 3 3 5 8 1 7 6 8 9 9 8 9 8 3 7 10 12 14 14 16 14 12 7 6 8 9 11 11 13 12 11 10 10 11
8 3 6 7 8 4 4 3 2 4 3 2 7 8 6 9 7 8 9 8 8 8 8 6 7 4 5 8 10 11 11 10 7 10 12 10 11 12 12 12 12 12 12 12
5 1 4 5 6 3 4 6 3 4 5 5 6 6 0 5 5 5 5 6 10 10 10 8 7 5 3 4 4 2 5 9 9 9 9 18 13 10 10 10 11 11 13 13
2 2 4 4 4 6 5 9 7 7 3 7 5 7 3 1 3 4 4 5 5 6 7 8 6 7 7 7 9 9 1 7 10 14 15 7 11 11 11 11 11 12 13 12
3 6 3 5 3 4 6 9 6 3 4 4 4 4 4 2 4 4 5 5 6 5 4 3 3 3 5 2 9 13 5 4 10 14 15 11 9 14 16 13 13 15 16 13
7 6 4 4 2 1 9 3 3 5 2 4 4 4 6 4 4 6 5 5 7 4 2 5 3 4 4 7 9 8 6 6 7 11 16 14 16 19 17 15 18 19 16 19
2 6 3 4 4 6 3 1 2 4 7 5 4 2 4 4 2 5 6 6 6 5 5 5 5 5 7 7 7 6 7 7 7 9 13 14 15 17 16 16 12 13 16 17
6 4 5 3 4 7 7 3 3 2 5 6 6 6 6 4 2 5 6 6 8 8 6 6 6 5 2 3 4 8 11 10 10 9 8 7 11 16 17 18 17 16 16 14
3 3 4 2 4 7 7 6 2 5 8 1 2 2 5 6 7 3 4 6 4 4 4 3 5 5 6 7 8 8 7 8 10 11 11 3 7 11 14 13 10 6 5 2
4 3 4 3 2 5 2 3 1 6 4 1 2 2 3 8 9 6 6 4 4 5 6 4 2 4 6 6 4 6 6 5 7 8 9 9 4 5 6 10 7 9 7 8
4 6 4 8 7 5 4 2 1 2 2 2 1 3 4 6 5 4 4 5 5 6 5 4 4 6 6 6 4 5 5 5 5 5 6 5 5 2 7 10 8 8 9 10
3 2 1 2 3 5 4 2 3 3 3 3 4 3 3 5 7 7 5 5 5 3 4 2 4 5 7 5 6 6 6 5 4 3 3 3 4 5 1 2 2 3 6 6
5 1 3 6 10 4 10 7 8 6 5 5 7 6 8 6 8 7 6 5 3 4 3 4 5 6 7 7 8 8 6 4 4 5 5 3 3 3 3 3 4 8 8 8
5 8 5 9 14 6 9 5 5 7 7 9 8 7 7 6 9 6 7 3 2 3 3 3 4 5 7 7 7 9 7 5 4 6 4 4 3 3 3 3 2 7 6 8
Wind_Direction
38 96 225 216 196 190 322 221 272 275 207 229 232 268 200 179 187 186 178 190 190 204 206 205 213 212 190 178 172 183 178 171 158 158 157 164 191 182 193 187 187 177 179 168
24 230 239 203 170 173 188 259 255 283 200 192 305 254 215 185 211 189 181 190 203 207 194 208 209 206 198 191 190 187 191 174 181 181 159 154 155 203 127 153 212 202 175 163
155 238 108 200 240 210 225 206 237 210 28 223 11 307 281 212 209 190 195 197 198 199 200 202 203 205 202 195 191 190 190 180 179 169 132 90 92 82 135 198 191 198 179 167
228 282 246 172 224 159 282 198 251 245 60 237 78 283 313 326 251 210 194 194 199 200 206 207 204 203 204 210 189 190 186 181 175 160 170 161 174 165 194 184 160 180 173 169
253 242 231 231 221 161 235 122 106 176 138 21 215 43 267 347 295 252 206 197 198 200 196 197 200 206 205 198 189 191 181 178 172 173 177 178 173 175 164 159 164 151 201 167
235 269 215 223 276 182 4 94 56 52 78 58 243 139 287 260 249 289 198 201 193 197 200 201 200 191 199 183 177 177 182 184 176 178 178 182 184 170 174 168 174 163 171 187
330 288 305 297 338 26 73 58 349 358 10 216 34 70 245 260 285 249 264 203 191 195 196 191 185 182 185 181 178 178 178 189 181 182 184 186 187 177 188 183 172 166 171 174
59 345 1 341 143 232 107 151 156 184 200 258 153 232 249 226 319 326 285 179 181 189 193 197 191 187 185 182 178 180 184 184 185 186 194 191 175 183 186 181 175 189 192 190
94 291 318 327 317 115 313 30 180 101 11 57 294 297 312 315 359 354 357 128 178 187 191 194 195 188 182 181 182 182 183 187 186 193 191 188 178 178 188 186 183 184 181 182
204 65 321 292 23 10 85 166 23 360 129 172 307 294 254 334 321 330 320 257 159 216 226 209 193 190 190 183 177 174 183 190 189 190 192 193 187 189 186 181 190 190 191 176
120 102 288 12 53 247 355 14 52 115 93 150 167 266 223 287 303 321 350 26 35 215 204 201 202 185 194 176 171 177 181 192 195 192 194 191 192 189 182 194 201 197 184 181
32 127 245 236 292 297 345 60 115 109 249 98 142 270 255 355 339 345 353 7 357 351 223 185 174 155 143 151 160 186 197 196 193 193 190 196 192 184 190 198 203 197 195 185
165 17 16 352 354 356 43 336 99 96 81 200 130 263 298 27 26 6 4 3 357 2 2 76 143 156 164 172 173 184 183 187 166 170 200 203 200 192 199 206 200 194 198 191
85 110 159 179 211 183 308 311 77 106 90 208 230 286 335 337 3 358 357 360 17 24 18 54 70 107 170 187 191 198 186 163 151 181 185 200 209 207 208 202 201 199 197 194
93 216 189 247 230 218 236 239 274 232 200 165 249 234 353 291 320 316 309 360 28 15 19 17 29 26 37 23 355 291 131 161 200 181 174 211 195 207 211 214 212 207 200 197
31 241 176 272 269 226 264 254 227 238 210 265 275 278 173 271 302 303 326 346 26 6 353 356 3 25 47 56 35 333 151 217 195 207 214 219 184 185 204 205 203 203 202 207
159 140 107 265 329 327 300 232 195 188 185 198 189 237 185 207 253 262 288 306 313 330 338 12 359 19 354 340 128 246 221 179 206 215 235 238 212 192 192 191 190 206 201 198
151 127 133 225 5 239 240 285 232 218 233 233 241 176 189 187 229 270 256 269 288 289 334 320 307 298 215 190 213 231 242 212 202 224 220 209 202 208 212 213 209 203 200 199
168 135 133 161 181 285 298 75 102 167 259 197 243 200 162 138 342 284 225 225 247 259 262 256 269 283 307 322 326 323 326 314 288 261 233 216 206 208 215 228 238 209 204 207
76 72 118 118 157 199 236 276 227 148 264 213 201 203 188 129 116 256 202 198 226 228 228 226 227 206 213 318 340 16 4 354 347 325 276 203 193 203 215 228 240 224 226 228
360 23 175 164 231 292 260 289 322 142 238 19 154 202 171 193 206 258 230 212 228 237 257 328 6 353 330 339 352 0 350 358 332 328 328 242 203 205 211 215 223 216 190 136
195 154 212 120 179 265 349 328 243 223 288 276 23 320 250 254 284 283 282 287 287 282 293 275 283 293 299 294 308 331 334 319 330 337 344 333 256 198 177 151 151 164 139 112
276 188 195 174 217 239 271 188 306 196 254 348 322 308 287 278 261 265 258 266 268 294 311 326 297 289 273 268 264 302 297 328 329 335 336 331 313 263 164 166 158 162 167 170
300 149 188 12 268 236 228 262 220 235 232 278 278 289 295 285 294 271 253 245 249 266 282 255 280 281 293 307 288 247 288 296 300 305 301 298 285 271 216 76 127 206 185 178
205 97 215 261 276 257 270 243 228 251 262 274 268 247 259 258 267 249 275 286 287 296 325 341 327 309 293 299 299 299 275 244 280 299 288 265 233 236 222 191 188 202 198 194
177 206 185 244 263 207 260 248 267 244 252 265 258 278 266 211 249 272 263 246 248 317 328 333 293 278 290 300 298 295 285 235 226 277 280 269 255 217 205 187 197 16 350 269